Home   Weather   Tuba City   Past weeks

Flag for USA Past Weather in Tuba City, Arizona, USA — Yesterday and Last 2 Weeks

59 °F


Feels Like: 58 °F
Forecast: 46 / 77 °F
Wind: 6 mph from East

Location: Grand Canyon National Park Airport

Current Time: Oct 26, 2016 at 7:26:17 PM

Latest Report: Oct 26, 2016 at 6:54 PM

Visibility: 10 mi

Pressure: 30.19 "Hg (25.24 "Hg at 1510m altitude)

Humidity: 58%

Dew Point: 44 °F

Location of Tuba CityLocation

Past Weather in Tuba City — Graph


Tuba City Temperature Yesterday

Maximum temperature yesterday: 65 °F (at 2:54 PM)
Minimum temperature yesterday: 41 °F (at 11:54 PM)
Average temperature yesterday: 53 °F

High & Low Weather Summary for the Past Weeks

High122 °F (Oct 20, 10:54 AM)97% (Oct 25, 2:54 AM)30.43 "Hg (Oct 25, 2:54 AM)
Low26 °F (Oct 19, 7:54 AM)10% (Oct 20, 3:54 PM)29.73 "Hg (Oct 17, 3:54 AM)
Average53 °F48%30.07 "Hg
* Reported Oct 11 5:54 PM — Oct 26 5:54 PM, Tuba City, Weather by CustomWeather, © 2016

Note: Actual official high and low records may vary slightly from our data, if they occured in-between our weather recording intervals... More about our weather records


Tuba City Weather History for the Previous 24 Hours

Scroll right to see more
Time TempWeatherWind HumidityBarometerVisibility
5:54 PM
Wed, Oct 26
64 °FSunny.9 mph49%30.16 "Hg10 mi
4:54 PM68 °FSunny.15 mph39%30.16 "Hg10 mi
3:54 PM69 °FSunny.8 mph32%30.13 "Hg10 mi
2:54 PM69 °FSunny.9 mph30%30.14 "Hg10 mi
1:54 PM68 °FSunny.7 mph39%30.17 "Hg10 mi
12:54 PM66 °FSunny.10 mph43%30.19 "Hg10 mi
11:54 AM65 °FSunny.6 mph51%30.21 "Hg10 mi
10:54 AM62 °FSunny.9 mph56%30.22 "Hg10 mi
9:54 AM58 °FSunny.8 mph70%30.23 "Hg10 mi
8:54 AM46 °FSunny.3 mph93%30.27 "Hg10 mi
7:54 AM36 °FSunny.No wind97%30.26 "Hg10 mi
6:54 AM36 °FClear.No wind97%30.26 "Hg10 mi
5:54 AM37 °FClear.No wind93%30.21 "Hg10 mi
4:54 AM36 °FClear.No wind97%30.19 "Hg10 mi
3:54 AM38 °FClear.No wind93%30.19 "Hg10 mi
2:54 AM39 °FClear.No wind96%30.19 "Hg10 mi
1:54 AM40 °FClear.3 mph97%30.20 "Hg10 mi
12:54 AM41 °FClear.No wind96%30.19 "Hg10 mi
11:54 PM
Tue, Oct 25
41 °FClear.No wind96%30.20 "Hg10 mi
10:54 PM44 °FClear.No wind89%30.18 "Hg10 mi
9:54 PM46 °FClear.No wind93%30.18 "Hg10 mi
8:54 PM47 °FClear.No wind90%30.19 "Hg10 mi
7:54 PM53 °FMostly cloudy.3 mph77%30.15 "Hg10 mi
Weather by CustomWeather, © 2016

See weather overviewHow to use our weather pages